Regional Weather Roundup
Issued by NWS Charleston, SC

Current Version | Previous Version | Graphics & Text | Print | Product List | Glossary On
Versions: 1 2 3 4 5 6 7 8 9 10 11 12 13 14 15 16 17 18 19 20 21 22 23 24 25 26 27 28 29 30 31 32 33 34 35 36 37 38 39 40 41 42 43 44 45 46 47 48 49 50
000
ASUS42 KCHS 231427
RWRCHS

REGIONAL WEATHER ROUNDUP
NATIONAL WEATHER SERVICE CHARLESTON SC
1000 AM EDT SUN JUL 23 2017

NOTE: "FAIR" INDICATES FEW OR NO CLOUDS BELOW 12,000 FEET WITH NO
SIGNIFICANT WEATHER AND/OR OBSTRUCTIONS TO VISIBILITY.

NOT ALL STATIONS ARE QUALITY CONTROLLED. USE DATA WITH CAUTION...
ESPECIALLY DEWPOINT OBSERVATIONS.

SCZ027-030-031-034>040-042>050-231500-
...SOUTHEAST SOUTH CAROLINA...

CITY           SKY/WX    TMP DP  RH WIND       PRES   REMARKS
N CHARLESTON   MOSUNNY   84  75  74 SW12      29.97S HX  92
WATERFRONT PRK   N/A     83  77  81 SW6       29.96S HX  92
JOHNS ISLAND   FAIR      86  79  79 SW9       29.97F HX  99
PINOPOLIS        N/A     81  75  83 SW7       29.90R
MONCKS CORNER  FAIR      84  75  74 SW7       29.96F HX  92
SUMMERVILLE    FAIR      84  75  74 SW6       29.97F HX  92
BEAUFORT MCAS  SUNNY     84  78  82 SW8       29.98F HX  95
BEAUFORT ARPT  FAIR      82  77  83 SW6       29.98F HAZE    HX  91
HILTON HEAD IS MOSUNNY   82  77  83 SW12      30.00S HX  91
WALTERBORO     SUNNY     84  75  74 SW5       29.98S HX  92
ALLENDALE      NOT AVBL

...SOUTHERN MIDLANDS AND PEE DEE...

CITY           SKY/WX    TMP DP  RH WIND       PRES   REMARKS
GEORGETOWN     FAIR      82  79  89 SW6       29.97F HX  93
KINGSTREE      FAIR      86  77  74 S7        29.94F HX  97
ORANGEBURG     SUNNY     85  75  72 W7        29.96S HX  93
BARNWELL       FAIR      88  79  74 SW7       29.97S HX 102
AIKEN          FAIR      84  73  70 SW10      30.00S HX  91
MANNING        FAIR      86  72  62 SW7       29.95F HX  92
COLUMBIA       MOSUNNY   87  75  67 SW10      29.93F HX  96
SUMTER         SUNNY     85  75  70 SW13      29.91F HX  94
FLORENCE       SUNNY     85  76  74 W9        29.93F HX  94
MYRTLE BEACH   MOSUNNY   86  75  70 SW10      29.96S HX  95
N MYRTLE BEACH SUNNY     84  77  79 S14       29.94F HX  94

$$

GAZ063-065-086>088-099>101-113>116-118-119-134>141-150-231500-
...SOUTHEAST GEORGIA...

CITY           SKY/WX    TMP DP  RH WIND       PRES   REMARKS
SAVANNAH ARPT  PTSUNNY   84  76  76 W9        30.00S HX  93
HUNTER AAF     PTSUNNY   84  77  79 SW7       29.97F HX  94
FORT STEWART   PTSUNNY   84  75  74 SW10      29.98F HX  92
STATESBORO     SUNNY     85  77  76 SW7       29.98F HX  96
SYLVANIA       SUNNY     85  79  81 W6        29.99S HX  97
CLAXTON        FAIR      85  78  77 CALM      29.99F HX  96

...CSRA...CENTRAL AND FAR SOUTHEAST GEORGIA...

CITY           SKY/WX    TMP DP  RH WIND       PRES   REMARKS
THOMSON        SUNNY     86  75  70 W8        30.01F HX  94
AUGUSTA-BUSH   SUNNY     87  76  69 W9        29.95F HX  97
AUGUSTA-DANIEL SUNNY     86  72  62 VRB5      29.97F HX  92
SWAINSBORO     FAIR      84  77  79 W6        30.00S HX  94
VIDALIA        SUNNY     86  77  74 SW3       29.99F HX  97
EASTMAN        FAIR      86  68  54 W6        30.02F
HAZLEHURST     PTSUNNY   84  81  89 SW8       30.00S HX  99
ALMA           CLOUDY    82  76  81 W8        30.02S
WAYCROSS       PTSUNNY   86  82  87 SW6       30.01F HX 103
JESUP          NOT AVBL
BAXLEY         CLOUDY    82  82 100 W7        30.00F HX  97
BRUNSWICK      CLOUDY    82  77  83 SW9       30.03S HX  91
SAINT SIMONS   PTSUNNY   83  76  79 VRB6      30.02S HX  91

$$

SCZ027-028-034-036>038-045-046-048>050-GAZ119-141-231500-
...LAKE AND SUPPLEMENTAL COASTAL OBSERVATIONS...

STATION/POSITION TIME  TEMP    WIND        PRES    WAVE   SWELL
                       AIR SEA DIR/SP/G            HT/PER HT/PER/DIR
                 (UTC) (F)     (DEG/KT/KT) (MB)    (FT/S) (FT/S/D)
WINYAH BAY       1345   82     260/  7     1014.0S
LAKE MURRAY      NOT AVBL
ACE BASIN NERRS  1330   83     210/  2     1016.0R
FORT PULASKI     1400   81 86  240/  7/ 10 1016.0
SAPELO ISLAND    1400   82     220/ 10     1016.0

$$

ANZ835-935-AMZ111-154-330-350-352-354-370-450-454-472-231500-
...C-MAN AND BUOY OBSERVATIONS...

STATION/POSITION TIME  TEMP    WIND        PRES    WAVE   SWELL
                       AIR SEA DIR/SP/G            HT/PER HT/PER/DIR
                 (UTC) (F)     (DEG/KT/KT) (MB)    (FT/S) (FT/S/D)
BUOY 41004       1410   82 83  230/ 17/ 21 1015.0
BUOY 41008       1350   79 80  240/ 10/ 12 1015.8F   3/ 4   2/ 90/10
FOLLY BEACH CMAN 1400   83     220/ 14/ 18 1015.6F
CAPERS NEARSHORE 1408   81 83  240/ 16/ 21 1014.6S
FRIPP NEARSHORE  1408   81 84  230/ 12/ 16 1014.9F


STATION/POSITION TIME  TEMP    WIND        PRES    WAVE   SWELL
                       AIR SEA DIR/SP/G            HT/PER HT/PER/DIR
                 (UTC) (F)     (DEG/KT/KT) (MB)    (FT/S) (FT/S/D)
5E ST. MARYS GA  1400      81                N/A     2/10
FRYING PAN BUOY  1410   83 84  230/ 17/ 21 1014.1
BUOY 41025       1350   84 85  230/ 25/ 29 1011.8F   6/ 7   2/200/ 9
CAPE LOOKOUT NC  1400   83     210/ 14/ 19 1012.7F
BUOY 41002       1350   83 83  230/ 16/ 19 1017.0S   5/ 5   2/100/10
BUOY 41010       1410   82 85  220/ 12/ 14 1017.9
ST AUGUSTINE FL  1400   83 76  210/ 12/ 13 1017.8S


$$




USA.gov is the U.S. government's official web portal to all federal, state and local government web resources and services.